Elkins, WV

9:07 AM EST on February 25, 2018 (GMT -0500)
Elkins-Randolph County

Weather History for KEKN - July, 2012

Change the Weather History Date:

Monday, July 16, 2012

  Actual Average Record
Temperature  
Mean Temperature 76 °F 70 °F  
Max Temperature 86 °F 81 °F 99 °F (1988)
Min Temperature 66 °F 59 °F 44 °F (1926)
Degree Days  
Heating Degree Days 0 0  
Month to date heating degree days 0 8  
Since 1 June heating degree days 70 63  
Since 1 July heating degree days 0 8  
Cooling Degree Days 11 5  
Month to date cooling degree days 161 82  
Year to date cooling degree days 324 197  
Since 1 June cooling degree days 261 174  
Growing Degree Days 26 (Base 50)    
Moisture  
Dew Point 66 °F    
Average Humidity 74    
Maximum Humidity 100    
Minimum Humidity 48    
Precipitation  
Precipitation T in 0.18 in 1.68 in (1919)
Month to date precipitation 4.61 2.86  
Year to date precipitation 24.65 26.47  
Snow  
Snow 0.00 in - - ()
Month to date snowfall 0.0  
Since 1 September snowfall 30.6  
Snow Depth 0.00 in    
Sea Level Pressure  
Sea Level Pressure 30.06 in    
Wind  
Wind Speed 4 mph (West)    
Max Wind Speed 14 mph    
Max Gust Speed 17 mph    
Visibility 8 miles    
Events Rain    
T = Trace of Precipitation, MM = Missing Value Source: NWS Daily Summary

Daily Weather History Graph

Daily Weather History Graph

Search for Another Location

Airport or City:

Trip Planner

Search our weather history database for the weather conditions in past years. The results will help you decide how hot, cold, wet, or windy it might be!

Date:

Astronomy

Jul. 16, 2012 Rise Set
Actual Time 6:07 AM EDT 8:43 PM EDT
Civil Twilight 5:36 AM EDT 9:14 PM EDT
Nautical Twilight 4:57 AM EDT 9:52 PM EDT
Astronomical Twilight 4:14 AM EDT 10:35 PM EDT
Moon 3:50 AM EDT (7/16) 6:47 PM EDT (7/16)
Length of Visible Light 15h 37m
Length of Day
14h 35m
Waning Crescent, 6% of the Moon is Illuminated
Jul 16
Waning Crescent
Jul 19
New
Jul 26
First Quarter
Aug 1
Full
Aug 9
Last Quarter

Hourly Weather History & Observations

Time (EDT) Temp. Heat Index Dew Point Humidity Pressure Visibility Wind Dir Wind Speed Gust Speed Precip Events Conditions
12:51 AM 68.0 °F - 66.0 °F 93% 30.13 in 10.0 mi Calm Calm - N/A   Overcast
1:51 AM 68.0 °F - 64.9 °F 90% 30.12 in 10.0 mi SSE 4.6 mph - 0.00 in Rain Light Rain
2:13 AM 68.0 °F - 64.4 °F 88% 30.14 in 10.0 mi South 3.5 mph - 0.00 in   Mostly Cloudy
2:49 AM 68.0 °F - 64.4 °F 88% 30.13 in 10.0 mi South 4.6 mph - 0.00 in   Mostly Cloudy
2:51 AM 68.0 °F - 64.9 °F 90% 30.10 in 10.0 mi Calm Calm - 0.00 in   Mostly Cloudy
3:24 AM 66.2 °F - 64.4 °F 94% 30.12 in 10.0 mi Calm Calm - N/A   Mostly Cloudy
3:42 AM 68.0 °F - 66.2 °F 94% 30.12 in 10.0 mi Calm Calm - N/A   Mostly Cloudy
3:51 AM 68.0 °F - 66.0 °F 93% 30.09 in 10.0 mi Calm Calm - N/A   Overcast
4:51 AM 69.1 °F - 66.9 °F 93% 30.08 in 10.0 mi ESE 3.5 mph - N/A   Overcast
5:38 AM 69.8 °F - 66.2 °F 88% 30.11 in 9.0 mi Calm Calm - N/A   Overcast
5:51 AM 69.1 °F - 66.9 °F 93% 30.08 in 6.0 mi Calm Calm - N/A   Overcast
6:12 AM 69.8 °F - 66.2 °F 88% 30.12 in 7.0 mi Calm Calm - N/A   Overcast
6:51 AM 70.0 °F - 68.0 °F 93% 30.08 in 6.0 mi SE 3.5 mph - N/A   Overcast
7:51 AM 73.0 °F - 68.0 °F 84% 30.09 in 6.0 mi WNW 6.9 mph - N/A   Haze
8:51 AM 73.9 °F - 68.0 °F 82% 30.10 in 6.0 mi WNW 5.8 mph - N/A   Haze
9:51 AM 75.0 °F - 69.1 °F 82% 30.09 in 7.0 mi WSW 5.8 mph - N/A   Overcast
10:51 AM 78.1 °F - 68.0 °F 71% 30.08 in 7.0 mi WNW 6.9 mph - N/A   Overcast
11:51 AM 79.0 °F - 68.0 °F 69% 30.07 in 8.0 mi NW 4.6 mph - N/A   Mostly Cloudy
12:33 PM 80.6 °F 83.2 °F 68.0 °F 65% 30.10 in 9.0 mi NW 9.2 mph - N/A   Mostly Cloudy
12:51 PM 82.0 °F 84.9 °F 68.0 °F 62% 30.06 in 9.0 mi WNW 8.1 mph 17.3 mph N/A   Scattered Clouds
1:51 PM 84.0 °F 86.5 °F 66.9 °F 56% 30.04 in 10.0 mi WNW 6.9 mph 16.1 mph N/A   Scattered Clouds
2:51 PM 84.0 °F 86.3 °F 66.0 °F 55% 30.03 in 10.0 mi NW 9.2 mph - N/A   Scattered Clouds
3:51 PM 86.0 °F 87.3 °F 64.0 °F 48% 30.02 in 10.0 mi WNW 6.9 mph - N/A   Scattered Clouds
4:51 PM 84.9 °F 86.6 °F 64.9 °F 51% 29.99 in 10.0 mi WNW 4.6 mph - N/A   Scattered Clouds
5:51 PM 84.9 °F 86.6 °F 64.9 °F 51% 29.98 in 10.0 mi West 4.6 mph - N/A   Partly Cloudy
6:51 PM 82.9 °F 84.6 °F 64.9 °F 54% 29.97 in 10.0 mi West 3.5 mph - N/A   Clear
7:51 PM 75.9 °F - 69.1 °F 79% 29.98 in 8.0 mi Calm Calm - N/A   Clear
8:51 PM 71.1 °F - 68.0 °F 90% 29.99 in 5.0 mi Calm Calm - N/A   Clear
9:51 PM 70.0 °F - 66.9 °F 90% 30.00 in 6.0 mi Calm Calm - N/A   Clear
10:51 PM 68.0 °F - 66.0 °F 93% 30.02 in 4.0 mi Calm Calm - N/A   Clear
11:11 PM 66.2 °F - 64.4 °F 94% 30.05 in 2.5 mi Calm Calm - N/A   Clear
11:30 PM 66.2 °F - 64.4 °F 94% 30.06 in 3.0 mi Calm Calm - N/A   Clear
11:51 PM 66.9 °F - 66.0 °F 97% 30.02 in 4.0 mi Calm Calm - N/A   Clear